Location: Invercargill
(46.4000°S, 168.3500°E)
Time: 11:48:13
(UTC+13:00)

A-11 Canister half - Visible Passes

Search period start: 23 October 2019 00:00
Search period end: 02 November 2019 00:00
Orbit: 1514 x 1686 km, 47.2° (Epoch: 21 October)

Date Brightness Start Highest point End Pass type
(mag) Time Alt. Az. Time Alt. Az. Time Alt. Az.
23 Oct 9.6 20:49:39 10° WSW 20:59:11 56° NNW 21:08:56 10° NE visible
23 Oct 10.7 22:56:04 10° W 23:02:36 20° NW 23:08:26 12° NNW visible
24 Oct 10.6 22:32:55 10° W 22:39:47 21° NW 22:46:45 10° N visible
25 Oct 10.6 22:09:49 10° W 22:16:57 23° NW 22:24:13 10° N visible
26 Oct 10.6 21:46:44 10° W 21:54:07 24° NW 22:01:38 10° N visible
27 Oct 10.6 21:23:40 10° W 21:31:17 26° NW 21:39:03 10° N visible
28 Oct 10.6 21:00:38 10° W 21:08:27 28° NW 21:16:25 10° N visible
